• Join FlightAware (Why Join?)
  • Login
  • US Flag GB Flag 
09:04 EDT


 

Airport Tracker/Info


-or-


 

Live Flight TrackerFlight Track Log ✈ FSR411 ✈ 25-Apr-2013 ✈ KISM - KCMI

Flight Track Log - Related Links

Times and Time Zones

All times are in EDT time to prevent confusion due to time zone crossing. See the FSR411 flight status page for this flight to view local times or setup timezone preferences in your user account.

Time Position Orientation Groundspeed Altitude Reporting Facility
EDT Latitude Longitude Course Direction KTS MPH feet Rate Location/Type
12:16 28.2833 -81.4333 204° Southwest 165 190 600  Level Orlando TRACON
12:17 28.2500 -81.4500 204° Southwest 208 239 2,000 1,800 Climbing Orlando TRACON
12:18 28.2333 -81.5333 257° West 268 308 3,900 2,340 Climbing Orlando TRACON
12:19 28.2500 -81.6167 283° West 276 318 6,800 3,120 Climbing Orlando TRACON
12:21 28.2517 -81.7897 271° West 302 348 13,100 3,000 Climbing Jacksonville Center
12:22 28.2567 -81.9028 273° West 321 369 15,600 2,640 Climbing Jacksonville Center
12:23 28.2597 -82.0231 272° West 366 421 18,400 3,000 Climbing Jacksonville Center
12:24 28.2772 -82.1431 279° West 385 443 21,600 2,940 Climbing Jacksonville Center
12:25 28.3153 -82.2631 290° West 391 450 24,300 2,100 Climbing Jacksonville Center
12:26 28.3492 -82.3736 289° West 408 470 25,900 1,740 Climbing Jacksonville Center
12:27 28.3894 -82.5008 290° West 421 484 27,800 1,920 Climbing Jacksonville Center
12:28 28.4689 -82.5997 312° West 420 483 29,800 1,920 Climbing Jacksonville Center
12:29 28.5650 -82.6750 325° Northwest 413 475 31,700 1,800 Climbing Jacksonville Center
12:30 28.6778 -82.7150 343° North 413 475 33,400 1,800 Climbing Jacksonville Center
12:31 28.7906 -82.7386 350° North 408 470 35,300 1,740 Climbing Jacksonville Center
12:32 28.8992 -82.7597 350° North 403 464 36,900 1,320 Climbing Jacksonville Center
12:33 29.0056 -82.7975 343° North 393 452 38,000 1,080 Climbing Jacksonville Center
12:34 29.1058 -82.8428 338° Northwest 387 445 39,100 900 Climbing Jacksonville Center
12:35 29.2017 -82.8856 339° North 381 438 39,900 420 Climbing Jacksonville Center
12:36 29.3019 -82.9283 340° North 381 438 40,000  Climbing Jacksonville Center
12:37 29.4000 -82.9689 340° North 375 432 40,000  Level Jacksonville Center
12:38 29.5106 -83.0214 338° Northwest 386 444 40,000  Level Jacksonville Center
12:39 29.6108 -83.0669 338° Northwest 381 438 40,000  Level Jacksonville Center
12:40 29.7089 -83.1078 340° North 387 445 40,000  Level Jacksonville Center
12:41 29.8047 -83.1511 339° North 387 445 40,000  Level Jacksonville Center
12:42 29.9069 -83.1944 340° North 382 440 40,000  Level Jacksonville Center
12:43 30.0050 -83.2381 339° North 377 434 40,000  Level Jacksonville Center
12:44 30.1072 -83.2839 339° North 382 440 40,000  Level Jacksonville Center
12:45 30.2072 -83.3275 339° North 382 440 40,000  Level Jacksonville Center
12:46 30.3053 -83.3714 339° North 382 440 40,000  Level Jacksonville Center
12:47 30.4075 -83.4153 340° North 382 440 40,000  Level Jacksonville Center
12:48 30.5075 -83.4592 339° North 382 440 40,000  Level Jacksonville Center
12:49 30.6117 -83.5033 340° North 388 447 40,000  Level Jacksonville Center
12:50 30.7136 -83.5522 338° Northwest 393 452 40,000  Level Jacksonville Center
12:51 30.8117 -83.5964 339° North 388 447 40,000  Level Jacksonville Center
12:52 30.9136 -83.6433 338° Northwest 388 447 40,000  Level Jacksonville Center
12:53 31.0178 -83.6900 339° North 393 452 40,000  Level Jacksonville Center
12:54 31.1178 -83.7372 338° Northwest 393 452 40,000  Level Jacksonville Center
12:56 31.3458 -83.8419 339° North 390 449 40,000  Level Atlanta Center
12:57 31.4481 -83.8903 338° Northwest 390 449 40,000  Level Atlanta Center
12:58 31.5525 -83.9364 339° North 390 449 40,000  Level Atlanta Center
12:59 31.6589 -83.9875 338° Northwest 395 455 40,000  Level Atlanta Center
13:00 31.7633 -84.0339 339° North 395 455 40,000  Level Atlanta Center
13:01 31.8572 -84.0756 339° North 395 455 40,000  Level Atlanta Center
13:02 31.9617 -84.1222 339° North 395 455 40,000  Level Atlanta Center
13:03 32.0658 -84.1711 338° Northwest 395 455 40,000  Level Atlanta Center
13:04 32.1703 -84.2206 338° Northwest 395 455 40,000  Level Atlanta Center
13:05 32.2725 -84.2672 339° North 390 449 40,000  Level Atlanta Center
13:06 32.3767 -84.3144 339° North 390 449 40,000  Level Atlanta Center
13:07 32.4808 -84.3639 338° Northwest 390 449 40,000  Level Atlanta Center
13:08 32.5831 -84.4136 338° Northwest 390 449 40,000  Level Atlanta Center
13:09 32.6872 -84.4583 340° North 390 449 40,000  Level Atlanta Center
13:11 32.9019 -84.5608 338° Northwest 390 449 40,000  Level Atlanta Center
13:12 33.0081 -84.6136 337° Northwest 399 459 40,000  Level Atlanta Center
13:13 33.1122 -84.6614 339° North 399 459 40,000  Level Atlanta Center
13:14 33.2058 -84.7067 338° Northwest 399 459 40,000  Level Atlanta Center
13:15 33.3100 -84.7572 338° Northwest 399 459 40,000  Level Atlanta Center
13:16 33.4142 -84.8078 338° Northwest 399 459 40,000  Level Atlanta Center
13:17 33.5181 -84.8586 338° Northwest 394 453 40,000  Level Atlanta Center
13:18 33.6222 -84.9069 339° North 394 453 40,000  Level Atlanta Center
13:19 33.7344 -84.9631 337° Northwest 394 453 40,000  Level Atlanta Center
13:20 33.8383 -85.0117 339° North 394 453 40,000  Level Atlanta Center
13:21 33.9425 -85.0606 339° North 394 453 40,000  Level Atlanta Center
13:22 34.0464 -85.1119 338° Northwest 394 453 40,000  Level Atlanta Center
13:23 34.1503 -85.1608 339° North 394 453 40,000  Level Atlanta Center
13:24 34.2542 -85.2100 339° North 394 453 40,000  Level Atlanta Center
13:25 34.3475 -85.2564 338° Northwest 394 453 40,000 180 Level Atlanta Center
13:26 34.4578 -85.3111 338° Northwest 394 453 40,400 540 Climbing Atlanta Center
13:27 34.5614 -85.3631 338° Northwest 394 453 41,100 720 Climbing Atlanta Center
13:28 34.6672 -85.4153 338° Northwest 394 453 41,900 900 Climbing Atlanta Center
13:29 34.7669 -85.4622 339° North 388 447 42,900 540 Climbing Atlanta Center
13:30 34.8664 -85.5147 337° Northwest 388 447 43,000  Climbing Atlanta Center
13:31 34.9681 -85.5647 338° Northwest 388 447 43,000  Level Atlanta Center
13:32 35.0719 -85.6172 338° Northwest 388 447 43,000  Level Atlanta Center
13:33 35.2008 -85.6789 339° North 406 467 43,000  Level Memphis Center
13:34 35.3028 -85.7292 338° Northwest 401 461 43,000  Level Memphis Center
13:35 35.4025 -85.7797 338° Northwest 396 456 43,000  Level Memphis Center
13:36 35.5047 -85.8328 337° Northwest 391 450 43,000  Level Memphis Center
13:37 35.6067 -85.8833 338° Northwest 391 450 43,000  Level Memphis Center
13:38 35.6981 -85.9294 338° Northwest 391 450 43,000  Level Memphis Center
13:39 35.7997 -85.9803 338° Northwest 391 450 43,000  Level Memphis Center
13:40 35.9039 -86.0339 337° Northwest 401 461 43,000  Level Memphis Center
13:41 36.0058 -86.0875 337° Northwest 401 461 43,000  Level Memphis Center
13:42 36.1139 -86.1408 338° Northwest 406 467 43,000  Level Memphis Center
13:43 36.2264 -86.2019 336° Northwest 401 461 43,000  Level Memphis Center
13:44 36.3303 -86.2533 338° Northwest 401 461 43,000  Level Memphis Center
13:45 36.4364 -86.3072 338° Northwest 401 461 43,000  Level Memphis Center
13:46 36.5381 -86.3589 338° Northwest 401 461 43,000  Level Memphis Center
13:47 36.6419 -86.4133 337° Northwest 401 461 43,000  Level Memphis Center
13:48 36.7436 -86.4678 337° Northwest 401 461 43,000  Level Memphis Center
13:49 36.8475 -86.5225 337° Northwest 402 463 43,000  Level Memphis Center
13:51 37.0472 -86.6253 338° Northwest 397 457 43,000  Level Indianapolis Center
13:52 37.1506 -86.6806 337° Northwest 400 460 43,000  Level Indianapolis Center
13:53 37.2517 -86.7331 338° Northwest 394 453 43,000  Level Indianapolis Center
13:54 37.3542 -86.7864 338° Northwest 396 456 43,000  Level Indianapolis Center
13:55 37.4544 -86.8422 336° Northwest 392 451 43,000  Level Indianapolis Center
13:56 37.5614 -86.8978 338° Northwest 396 456 43,000  Level Indianapolis Center
13:57 37.6625 -86.9531 337° Northwest 395 455 43,000 -600 Level Indianapolis Center
13:58 37.7742 -86.9825 348° North 407 468 41,800 -1,440 Descending Indianapolis Center
14:00 37.8858 -87.0136 348° North 408 470 40,100 -1,920 Descending Indianapolis Center
14:01 38.0208 -87.0514 348° North 410 472 37,900 -1,980 Descending Indianapolis Center
14:02 38.1289 -87.0817 348° North 400 460 36,100 -1,500 Descending Indianapolis Center
14:03 38.2161 -87.1353 334° Northwest 375 432 34,800 -1,500 Descending Indianapolis Center
14:04 38.3119 -87.1928 335° Northwest 375 432 33,000 -1,860 Descending Indianapolis Center
14:05 38.4197 -87.2611 334° Northwest 380 437 31,000 -1,860 Descending Indianapolis Center
14:06 38.5158 -87.3186 335° Northwest 379 436 29,200 -1,800 Descending Indianapolis Center
14:07 38.6142 -87.3797 334° Northwest 385 443 27,400 -1,800 Descending Indianapolis Center
14:08 38.7106 -87.4389 334° Northwest 384 442 25,600 -1,800 Descending Indianapolis Center
14:10 38.8986 -87.5558 334° Northwest 373 429 22,000 -1,800 Descending Indianapolis Center
14:11 39.0044 -87.6217 334° Northwest 354 407 20,100 -1,680 Descending Indianapolis Center
14:12 39.0917 -87.6764 334° Northwest 349 402 18,600 -1,260 Descending Indianapolis Center
14:13 39.1778 -87.7306 334° Northwest 344 396 17,500 -1,260 Descending Indianapolis Center
14:14 39.2639 -87.7839 334° Northwest 343 395 16,000 -1,440 Descending Indianapolis Center
14:15 39.3489 -87.8367 334° Northwest 338 389 14,600 -1,500 Descending Indianapolis Center
14:16 39.4353 -87.8914 334° Northwest 333 383 13,000 -1,500 Descending Indianapolis Center
14:17 39.5169 -87.9444 333° Northwest 327 376 11,600 -1,260 Descending Indianapolis Center
14:18 39.5922 -87.9900 335° Northwest 303 349 10,400 -1,620 Descending Indianapolis Center
14:19 39.6642 -88.0375 333° Northwest 255 293 8,300 -2,040 Descending Indianapolis Center
14:20 39.7200 -88.0792 330° Northwest 236 272 6,300 -1,200 Descending Indianapolis Center
14:21 39.7739 -88.1169 332° Northwest 235 270 5,900 -420 Descending Indianapolis Center
14:23 39.8938 -88.1757 346° North  Level FlightAware Approximate
14:30 40.0333 -88.2667 333° Northwest  Level FlightAware Approximate
14:31 40.0388 -88.2778 333° Northwest  Level Estimated
14:32 40.0388 -88.2778 333° Northwest  Level Estimated
14:33 40.0388 -88.2778 333° Northwest  Level Estimated
14:34 40.0388 -88.2778 333° Northwest  Level Estimated
14:35 40.0388 -88.2778 333° Northwest  Level Estimated